TimeEST,TemperatureF,Dew PointF,Humidity,Sea Level PressureIn,VisibilityMPH,Wind Direction,Wind SpeedMPH,Gust SpeedMPH,PrecipitationIn,Events,Conditions,WindDirDegrees,DateUTC
12:54 AM,46.9,39.9,77,30.07,10.0,WSW,5.8,-,N/A,,Clear,240,2013-01-29 05:54:00
1:54 AM,46.0,39.9,79,30.07,9.0,SW,8.1,-,N/A,,Clear,230,2013-01-29 06:54:00
2:54 AM,45.0,39.9,82,30.07,8.0,SW,8.1,-,N/A,,Clear,230,2013-01-29 07:54:00
3:54 AM,45.0,39.9,82,30.08,8.0,WSW,5.8,-,N/A,,Clear,250,2013-01-29 08:54:00
4:54 AM,43.0,39.0,86,30.09,7.0,SW,4.6,-,N/A,,Clear,230,2013-01-29 09:54:00
5:54 AM,39.9,37.9,93,30.11,5.0,SSW,3.5,-,N/A,,Clear,200,2013-01-29 10:54:00
6:54 AM,42.1,39.0,89,30.12,6.0,SW,3.5,-,N/A,,Clear,220,2013-01-29 11:54:00
7:54 AM,43.0,39.9,89,30.14,4.0,Calm,Calm,-,N/A,,Overcast,0,2013-01-29 12:54:00
8:54 AM,46.0,42.1,86,30.15,5.0,SSW,4.6,-,N/A,,Overcast,210,2013-01-29 13:54:00
9:24 AM,48.2,42.8,82,30.14,6.0,SW,3.5,61.0,N/A,,Haze,230,2013-01-29 14:24:00
9:54 AM,48.9,42.1,77,30.15,7.0,Calm,Calm,-,N/A,,Overcast,0,2013-01-29 14:54:00
10:54 AM,53.1,44.1,71,30.16,8.0,WNW,4.6,-,N/A,,Overcast,300,2013-01-29 15:54:00
11:54 AM,57.0,46.0,67,30.12,10.0,Calm,Calm,-,N/A,,Overcast,0,2013-01-29 16:54:00
12:54 PM,62.1,48.0,60,30.10,-9999.0,Calm,Calm,-,N/A,,Partly Cloudy,0,2013-01-29 17:54:00
1:54 PM,66.0,50.0,56,30.08,10.0,SE,5.8,-,N/A,,Clear,140,2013-01-29 18:54:00
2:54 PM,64.0,48.0,56,30.08,10.0,ESE,9.2,-,N/A,,Clear,110,2013-01-29 19:54:00
3:54 PM,59.0,46.0,62,30.09,9.0,ESE,9.2,-,N/A,,Clear,120,2013-01-29 20:54:00
4:54 PM,55.0,45.0,69,30.08,8.0,SSE,8.1,-,N/A,,Clear,150,2013-01-29 21:54:00
5:54 PM,54.0,45.0,72,30.09,10.0,South,6.9,-,N/A,,Clear,170,2013-01-29 22:54:00
6:54 PM,51.1,44.1,77,30.10,9.0,SSE,10.4,-,N/A,,Clear,160,2013-01-29 23:54:00
7:54 PM,51.1,45.0,80,30.09,8.0,South,10.4,-,N/A,,Clear,170,2013-01-30 00:54:00
8:54 PM,52.0,45.0,77,30.08,8.0,South,10.4,-,N/A,,Clear,180,2013-01-30 01:54:00
9:54 PM,51.1,45.0,80,30.08,7.0,South,10.4,-,N/A,,Clear,190,2013-01-30 02:54:00
10:54 PM,50.0,45.0,83,30.07,6.0,South,9.2,-,N/A,,Haze,190,2013-01-30 03:54:00
11:54 PM,50.0,46.0,86,30.06,6.0,South,8.1,-,N/A,,Clear,190,2013-01-30 04:54:00